Weather History for Palm Springs, CA

Change the Weather History Date:

Wednesday, January 2, 2013

  Actual Average Record
Temperature  
Mean Temperature 55 °F 56 °F  
Max Temperature 66 °F 67 °F 84 °F (1981)
Min Temperature 44 °F 45 °F 24 °F (1960)
Degree Days  
Heating Degree Days 10 9  
Month to date heating degree days 25 18  
Since 1 July heating degree days 326 404  
Cooling Degree Days 0 0  
Month to date cooling degree days 0 0  
Year to date cooling degree days 0 0  
Growing Degree Days 6 (Base 50)    
Moisture  
Dew Point 12 °F    
Average Humidity 22    
Maximum Humidity 33    
Minimum Humidity 10    
Precipitation  
Precipitation 0.00 in 0.05 in 0.90 in (1910)
Month to date precipitation 0.00 0.11  
Year to date precipitation 0.00 0.11  
Since 1 July precipitation 1.22 2.91  
Snow  
Snow 0.00 in - - ()
Month to date snowfall 0.0  
Year to date snowfall 0.0  
Since 1 July snowfall 0.0  
Snow Depth 0.00 in    
Sea Level Pressure  
Sea Level Pressure 30.14 in    
Wind  
Wind Speed 5 mph (West)    
Max Wind Speed 10 mph    
Max Gust Speed 13 mph    
Visibility 10 miles    
Events      
T = Trace of Precipitation, MM = Missing Value Source: NWS Daily Summary

Daily Weather History Graph

Daily Weather History Graph

Search for Another Location

Airport:

Trip Planner

Search our weather history database for the weather conditions in past years. The results will help you decide how hot, cold, wet, or windy it might be!

Date:

Astronomy

Jan. 02, 2013 Rise Set
Actual Time 6:51 AM PST 4:49 PM PST
Civil Twilight 6:23 AM PST 5:16 PM PST
Nautical Twilight 5:52 AM PST 5:48 PM PST
Astronomical Twilight 5:22 AM PST 6:18 PM PST
Moon 10:09 PM PST (1/2) 9:50 AM PST (1/2)
Length of Visible Light 10h 53m
Length of Day
9h 58m
Waning Gibbous, 74% of the Moon is Illuminated
Jan 2
Waning Gibbous
Jan 4
Last Quarter
Jan 11
New
Jan 18
First Quarter
Jan 26
Full

Hourly Weather History & Observations

Time (PST) Temp. Windchill Dew Point Humidity Pressure Visibility Wind Dir Wind Speed Gust Speed Precip Events Conditions
12:53 AM 48.9 °F - 12.0 °F 23% 30.23 in 10.0 mi Calm Calm - N/A   Clear
1:53 AM 46.9 °F - 15.1 °F 28% 30.22 in 10.0 mi WSW 6.9 mph - N/A   Clear
2:53 AM 45.0 °F 41.8 °F 18.0 °F 34% 30.21 in 10.0 mi WNW 5.8 mph - N/A   Clear
3:53 AM 48.9 °F - 14.0 °F 25% 30.20 in 10.0 mi NW 4.6 mph - N/A   Clear
4:53 AM 46.0 °F 41.9 °F 14.0 °F 28% 30.20 in 10.0 mi WSW 8.1 mph - N/A   Clear
5:53 AM 45.0 °F 40.6 °F 15.1 °F 30% 30.19 in 10.0 mi WSW 8.1 mph - N/A   Clear
6:53 AM 48.9 °F - 12.9 °F 24% 30.20 in 10.0 mi WNW 6.9 mph - N/A   Clear
7:53 AM 50.0 °F - 12.0 °F 22% 30.20 in 10.0 mi North 3.5 mph - N/A   Clear
8:53 AM 57.0 °F - 10.0 °F 15% 30.19 in 10.0 mi NNW 8.1 mph - N/A   Clear
9:53 AM 60.1 °F - 9.0 °F 13% 30.18 in 10.0 mi Variable 3.5 mph - N/A   Clear
10:53 AM 62.1 °F - 10.0 °F 13% 30.16 in 10.0 mi NE 3.5 mph - N/A   Clear
11:53 AM 62.1 °F - 8.1 °F 12% 30.12 in 10.0 mi SE 5.8 mph - N/A   Clear
12:53 PM 63.0 °F - 9.0 °F 12% 30.09 in 10.0 mi ESE 3.5 mph - N/A   Clear
1:53 PM 64.9 °F - 8.1 °F 11% 30.07 in 10.0 mi NW 3.5 mph - N/A   Clear
2:53 PM 66.0 °F - 8.1 °F 10% 30.06 in 10.0 mi Calm Calm - N/A   Clear
3:53 PM 64.0 °F - 8.1 °F 11% 30.07 in 10.0 mi Calm Calm - N/A   Scattered Clouds
4:53 PM 59.0 °F - 14.0 °F 17% 30.07 in 10.0 mi SW 8.1 mph - N/A   Scattered Clouds
5:53 PM 59.0 °F - 12.9 °F 16% 30.09 in 10.0 mi WSW 5.8 mph - N/A   Clear
6:53 PM 57.0 °F - 12.0 °F 17% 30.08 in 10.0 mi WSW 5.8 mph - N/A   Clear
7:53 PM 54.0 °F - 14.0 °F 21% 30.08 in 10.0 mi West 6.9 mph - N/A   Clear
8:53 PM 55.0 °F - 12.9 °F 19% 30.08 in 10.0 mi WSW 4.6 mph - N/A   Clear
9:53 PM 50.0 °F - 15.1 °F 25% 30.10 in 10.0 mi Calm Calm - N/A   Clear
10:53 PM 46.0 °F 43.9 °F 17.1 °F 31% 30.09 in 10.0 mi NE 4.6 mph - N/A   Clear
11:53 PM 44.1 °F - 16.0 °F 32% 30.10 in 10.0 mi Calm Calm - N/A   Clear